Regional Weather Roundup
Issued by NWS

Home | Current Version | Previous Version | Graphics & Text | Print | Product List | Glossary On
Versions: 1 2 3 4 5 6 7 8 9 10 11 12 13 14 15 16 17 18 19 20 21 22 23 24 25 26 27 28 29 30 31 32 33 34 35 36 37 38 39 40 41 42 43 44 45 46 47 48 49 50
000
ASUS43 KTOP 032108
RWRKS

WEATHER ROUNDUP FOR KANSAS
NATIONAL WEATHER SERVICE GOODLAND KS
400 PM CDT THU SEP 03 2015

NOTE:  "FAIR" INDICATES FEW OR NO CLOUDS BELOW 12,000 FEET WITH NO
SIGNIFICANT WEATHER AND/OR OBSTRUCTIONS TO VISIBILITY.

KSZ001>006-013>018-027>032-041>047-032200-
NORTHWEST KANSAS

CITY           SKY/WX    TMP DP  RH WIND       PRES   REMARKS
GOODLAND       PTSUNNY   96  47  18 SE8G18    29.82F
HAYS           MOSUNNY  100  59  25 S26G35    29.78S HX 100
HILL CITY      MOSUNNY  100  57  23 S17G24    29.76F HX  99
RUSSELL        MOSUNNY   99  57  24 S28G36    29.78F HX  98
$$

KSZ061>065-074>080-084>089-032200-
SOUTHWEST KANSAS

CITY           SKY/WX    TMP DP  RH WIND       PRES   REMARKS
DODGE CITY     PTSUNNY   91  56  30 S22G31    29.85F
ELKHART          N/A     94  52  24 SW8         N/A
GARDEN CITY    CLOUDY    94  55  26 S21G33    29.82F
GREAT BEND     MOSUNNY   97  57  26 S25G32    29.80F HX  95
LIBERAL        CLOUDY    97  54  23 S17       29.85F
PRATT          MOSUNNY   95  54  24 MISG      29.86F
$$

KSZ066>073-081>083-090>101-032200-
SOUTHEAST KANSAS

CITY           SKY/WX    TMP DP  RH WIND       PRES   REMARKS
CHANUTE        SUNNY     88  69  53 S16       29.92F
COFFEYVILLE    SUNNY     88  71  57 S10       29.92F
HUTCHINSON     SUNNY     95  62  33 S24G33    29.85F HX  96
MEDICINE LODGE   N/A     96  60  30 S22G30    29.83F HX  96
NEWTON         SUNNY     95  63  34 S23G31    29.89F HX  96
PARSONS        SUNNY     87  70  56 S8G17     29.93F
WICHITA INTL   PTSUNNY   94  63  35 S21G29    29.85F HX  95
WICHITA JABRA  SUNNY     91  65  41 S18G26    29.87F
WICHITA MCCONL SUNNY     92  65  41 SE21G26   29.87F
WINFIELD       SUNNY     94  61  33 S20G28    29.88F
$$

KSZ007>012-019>026-033>040-048>060-102>105-032200-
NORTHEAST KANSAS

CITY           SKY/WX    TMP DP  RH WIND       PRES   REMARKS
CONCORDIA      SUNNY     95  63  34 S23G31    29.80F HX  96
EMPORIA        SUNNY     91  65  41 S20G29    29.88F
LAWRENCE       SUNNY     92  66  42 S15G23    29.88F
MANHATTAN      SUNNY     96  64  34 S17G30    29.82F HX  98
MARYSVILLE     SUNNY     93  66  40 S17G24    29.83S HX  96
OLATHE IND     SUNNY     89  67  47 S16G23    29.92F
OLATHE EXE     SUNNY     87  69  54 S17       29.91F
SALINA         SUNNY     97  62  31 S21G31    29.81F HX  98
TOPEKA BILLARD SUNNY     92  67  43 S17       29.86F HX  95
TOPEKA FORBES  SUNNY     92  68  45 S15       29.87F HX  96
$$



USA.gov is the U.S. government's official web portal to all federal, state and local government web resources and services.